Home   Weather   22°59'N, 113°44'E   Past weeks
Flag for China

Past Weather in 22°59'N, 113°44'E, China — Yesterday and Last 2 Weeks

Now
77 °F

Passing clouds.


Feels Like: 79 °F
Forecast: 87 / 71 °F
Wind: 3 mph from Southeast

Location: Canton Airport

Current Time: Oct 22, 2019 at 10:14:27 pm

Latest Report: Oct 22, 2019 at 9:30 pm


Visibility: 5 mi

Pressure: 29.86 "Hg

Humidity: 57%

Dew Point: 61 °F

Location of 22°59'N, 113°44'ELocation

Past Weather in 22°59'N, 113°44'E — Graph

°F

22°59'N, 113°44'E Temperature Yesterday

Maximum temperature yesterday: 88 °F (at 2:30 pm)
Minimum temperature yesterday: 68 °F (at 5:00 am)
Average temperature yesterday: 77 °F

High & Low Weather Summary for the Past Weeks

 TemperatureHumidityPressure
High95 °F (Oct 12, 2:00 pm)94% (Oct 9, 2:00 am)30.15 "Hg (Oct 9, 2:00 am)
Low68 °F (Oct 21, 5:00 am)18% (Oct 20, 4:00 pm)29.80 "Hg (Oct 11, 2:30 pm)
Average80 °F61%29.99 "Hg
* Reported Oct 7 9:00 pm — Oct 22 9:00 pm, 22°59'N, 113°44'E. Weather by CustomWeather, © 2019

Note: Actual official high and low records may vary slightly from our data, if they occured in-between our weather recording intervals... More about our weather records

Advertising

22°59'N, 113°44'E Weather History for the Previous 24 Hours

Scroll right to see more
 ConditionsComfort  
Time TempWeatherWind HumidityBarometerVisibility
9:00 pm
Tue, Oct 22
79 °FPassing clouds.6 mph54%29.86 "Hg5 mi
8:30 pm79 °FPassing clouds.3 mph54%29.86 "Hg4 mi
8:00 pm79 °FClear.3 mph54%29.86 "Hg5 mi
7:30 pm79 °FClear.3 mph54%29.83 "Hg5 mi
7:00 pm79 °FPassing clouds.3 mph54%29.83 "Hg5 mi
6:30 pm81 °FPassing clouds.3 mph48%29.80 "Hg5 mi
6:00 pm82 °FPassing clouds.3 mph42%29.80 "Hg5 mi
5:30 pm82 °FPassing clouds.3 mph42%29.80 "HgN/A
5:00 pm84 °FScattered clouds.3 mph37%29.80 "HgN/A
4:30 pm84 °FPassing clouds.3 mph37%29.80 "HgN/A
4:00 pm84 °FPassing clouds.3 mph40%29.80 "HgN/A
3:30 pm84 °FPassing clouds.3 mph40%29.80 "HgN/A
3:00 pm84 °FPassing clouds.3 mph40%29.80 "HgN/A
2:30 pm84 °FPassing clouds.3 mph40%29.80 "HgN/A
2:00 pm84 °FPassing clouds.6 mph40%29.83 "HgN/A
1:30 pm84 °FPassing clouds.6 mph43%29.83 "HgN/A
1:00 pm84 °FScattered clouds.3 mph43%29.86 "HgN/A
12:30 pm84 °FScattered clouds.3 mph43%29.86 "Hg6 mi
12:00 pm82 °FScattered clouds.3 mph51%29.89 "Hg6 mi
11:30 am81 °FScattered clouds.3 mph54%29.89 "Hg6 mi
11:00 am81 °FPassing clouds.3 mph58%29.92 "Hg6 mi
10:30 am81 °FPassing clouds.3 mph58%29.95 "Hg5 mi
10:00 am79 °FPassing clouds.3 mph61%29.95 "Hg5 mi
9:30 am77 °FPassing clouds.1 mph61%29.95 "Hg4 mi
9:00 am75 °FPassing clouds.3 mph69%29.95 "Hg4 mi
8:30 am73 °FScattered clouds.3 mph69%29.95 "Hg4 mi
8:00 am72 °FPartly sunny.3 mph69%29.92 "Hg5 mi
7:30 am72 °FScattered clouds.3 mph69%29.92 "Hg5 mi
7:00 am70 °FScattered clouds.3 mph73%29.92 "Hg5 mi
6:30 am70 °FScattered clouds.3 mph73%29.89 "Hg5 mi
6:00 am70 °FClear.3 mph73%29.89 "Hg5 mi
5:30 am70 °FClear.6 mph73%29.89 "Hg5 mi
5:00 am70 °FClear.6 mph73%29.89 "Hg10 mi
4:30 am70 °FClear.8 mph73%29.86 "Hg10 mi
4:00 am72 °FClear.6 mph69%29.89 "Hg10 mi
3:30 am72 °FClear.6 mph69%29.89 "Hg10 mi
3:00 am72 °FPassing clouds.6 mph69%29.89 "HgN/A
2:30 am72 °FClear.6 mph69%29.89 "Hg10 mi
2:00 am72 °FClear.6 mph69%29.89 "Hg10 mi
1:30 am72 °FClear.6 mph69%29.89 "Hg10 mi
1:00 am72 °FPassing clouds.6 mph65%29.92 "HgN/A
12:30 am72 °FClear.3 mph69%29.92 "Hg10 mi
12:00 am73 °FClear.3 mph65%29.92 "Hg10 mi
11:30 pm
Mon, Oct 21
73 °FClear.3 mph61%29.92 "Hg6 mi
11:00 pm73 °FClear.3 mph57%29.92 "Hg6 mi
10:30 pm73 °FClear.3 mph61%29.92 "Hg6 mi
10:00 pm75 °FClear.1 mph54%29.92 "Hg5 mi
Weather by CustomWeather, © 2019

See weather overview